[[{"header":{"parameterUnit":"m.s-1","parameterCategory":1,"la1":30.2991,"la2":30.254,"lo1":-89.0895,"lo2":-89.0444,"dy":0.0017,"dx":0.0017,"nx":28,"ny":28,"refTime":"2024-10-15T03:00:00:Z","depth":0,"parameterNumber":2,"parameterNumberName":"U-component_of_WINDS"},"data":[0,0,0,0,0,0,0,0,0,0,0,0,0,0,0,0,0,0,0,0,0,0,0,0,0,0,0,0,0,0,0,0,0,0,0,0,0,0,0,0,0,0,0,0,0,0,0,0,0,0,0,0,0,0,0,0,0,0,1.3548,1.3549,0,1.367,1.3671,1.3672,1.3615,1.3611,1.3608,1.3605,1.3739,1.3746,1.3752,0,0,0,0,0,0,0,0,0,0,0,0,0,1.3272,1.3278,1.3547,1.3549,1.355,1.3669,1.3671,1.3673,1.3615,1.3611,1.3607,1.3604,1.3737,1.3745,1.3753,0,0,0,0,0,0,0,0,0,0,0,0,0,1.3393,1.328,1.3547,1.3536,1.3536,1.3669,1.3671,1.3673,1.3616,1.3611,1.3606,1.3602,1.3735,1.3744,1.3754,1.3908,0,0,1.3784,1.3788,0,0,0,0,0,0,0,0,1.3386,1.3403,1.3536,1.3537,1.3537,1.3622,1.3623,1.3752,1.3617,1.3586,1.3605,1.36,1.3705,1.3717,1.375,1.3914,1.392,1.3784,1.379,1.3794,1.3797,0,0,0,0,0,0,0,1.3378,1.3398,1.3596,1.3538,1.3539,1.3527,1.3539,1.3647,1.3671,1.3588,1.3584,1.3599,1.3704,1.3741,1.3753,1.3922,1.3784,1.3793,1.3799,1.3803,1.4218,1.4223,0,0,0,0,0,0,1.3369,1.3391,1.3592,1.36,1.3448,1.3536,1.3549,1.36,1.3669,1.3675,1.3603,1.3596,1.3727,1.3742,1.3757,1.3942,1.3794,1.3803,1.3809,1.4213,1.4219,1.4225,0,0,0,0,0,0,1.3363,1.3387,1.3587,1.3494,1.3519,1.3546,1.3603,1.3604,1.3641,1.368,1.3685,1.3635,1.3723,1.3744,1.387,1.3946,1.3808,1.3817,1.4207,1.4215,1.4222,1.4312,0,0,0,0,0,0,1.3356,1.3386,1.3443,1.3496,1.3524,1.3696,1.3607,1.361,1.3657,1.3649,1.3712,1.3718,1.3721,1.3856,1.388,1.3956,1.3824,1.42,1.4211,1.422,1.4302,1.4322,1.4339,0,0,0,0,0,1.3346,1.3465,1.3446,1.347,1.3595,1.37,1.3716,1.3715,1.3663,1.3722,1.3747,1.3716,1.3933,1.3869,1.3896,1.3977,1.4196,1.4208,1.4219,1.4294,1.4318,1.4338,0,0,0,0,0,0,1.3423,1.3472,1.3451,1.359,1.3641,1.369,1.3764,1.3741,1.381,1.38,1.3798,1.3813,1.3944,1.3973,1.3901,1.4129,1.4057,1.4074,1.4105,1.4128,1.4146,1.4136,1.3832,0,0,0,0,0,1.3456,1.3534,1.3574,1.3693,1.3719,1.3737,1.3783,1.3777,1.3831,1.3853,1.3888,1.3944,1.4024,1.4078,1.4154,1.4306,1.432,1.4375,1.4393,1.4408,1.4423,1.4506,1.4531,1.4264,1.4263,1.4263,0,0,1.3525,1.3561,1.3612,1.3709,1.3748,1.3831,1.3756,1.3848,1.391,1.3868,1.3988,1.4016,1.4079,1.4218,1.4282,1.4247,1.45,1.4423,1.4434,1.4442,1.452,1.4546,1.4568,1.4271,1.427,1.4269,0,0,1.3694,1.3729,1.3831,1.3871,1.3929,1.3941,1.3965,1.4018,1.4033,1.4154,1.4124,1.42,1.4339,1.4384,1.4426,1.4611,1.4586,1.4637,1.4731,1.4812,1.4833,1.4851,1.4918,1.4941,1.4652,1.4652,1.4652,0,1.3774,1.3895,1.3888,1.3982,1.4026,1.3989,1.4094,1.4134,1.4216,1.4249,1.4207,1.438,1.442,1.457,1.4614,1.4649,1.4679,1.4629,1.483,1.4848,1.4866,1.4929,1.4954,1.4658,1.4657,1.4656,1.4656,0,1.399,1.4075,1.4152,1.4228,1.4281,1.438,1.4391,1.4446,1.4436,1.4452,1.4576,1.4621,1.4706,1.4742,1.4734,1.4891,1.4867,1.4828,1.4755,1.4897,1.4956,1.498,1.4666,1.4664,1.4662,1.4661,0,0,1.4211,1.4281,1.4309,1.4343,1.4405,1.4472,1.457,1.465,1.4697,1.4756,1.4839,1.4957,1.4921,1.4968,1.4965,1.5036,1.518,1.4988,1.499,1.5022,1.5355,1.5384,1.5412,1.5163,1.5168,1.5171,1.535,0,1.4384,1.4552,1.4548,1.4706,1.4785,1.4751,1.4836,1.4885,1.4903,1.4975,1.4996,1.5079,1.5025,1.5053,1.5122,1.5148,1.5247,1.5135,1.5242,1.5246,1.5227,1.5443,1.5474,1.564,1.5373,1.5377,1.538,0,1.4608,1.4669,1.4834,1.4882,1.4916,1.4992,1.5065,1.5134,1.5189,1.5197,1.5249,1.5235,1.5337,1.5261,1.5403,1.5327,1.5371,1.5391,1.5397,1.5407,1.5321,1.5459,1.5693,1.5718,1.5416,1.5414,1.5411,0,1.4752,1.4877,1.499,1.5021,1.5081,1.5136,1.5164,1.5214,1.5262,1.5327,1.5359,1.5436,1.5478,1.554,1.5548,1.5492,1.5691,1.5615,1.5702,1.5702,1.5745,1.5742,1.599,1.5774,1.5774,1.5773,1.5773,0,1.4945,1.5047,1.5056,1.5126,1.524,1.5236,1.535,1.5374,1.5418,1.5494,1.5471,1.5544,1.555,1.5625,1.5633,1.5749,1.5769,1.578,1.5781,1.5782,1.5781,1.5811,1.5799,1.578,1.5779,1.5777,1.5776,0,1.5125,1.5135,1.5257,1.5303,1.5317,1.5399,1.544,1.5508,1.5523,1.562,1.5643,1.5668,1.5755,1.5769,1.5874,1.5879,1.6018,1.6007,1.5998,1.5997,1.6082,1.6074,1.6357,1.6394,1.6155,1.6157,1.6159,0,1.5247,1.5324,1.5377,1.5425,1.5455,1.5533,1.5581,1.5581,1.5633,1.5701,1.5762,1.5846,1.5913,1.6055,1.6085,1.6164,1.6155,1.6249,1.6167,1.6165,1.6156,1.6151,1.6159,1.6265,1.6267,1.6269,1.6271,0,1.5462,1.5463,1.5532,1.5603,1.566,1.5717,1.577,1.5811,1.5819,1.5878,1.5966,1.6018,1.6122,1.6207,1.6286,1.6318,1.6297,1.6296,1.6321,1.6323,1.6314,1.6319,1.6041,1.629,1.6288,1.6287,1.6286,1.6285,1.5617,1.5684,1.5731,1.5809,1.5848,1.5899,1.5964,1.5987,1.6059,1.6141,1.6138,1.6235,1.6289,1.6391,1.6429,1.6506,1.6476,1.6511,1.652,1.6528,1.6536,1.6302,1.652,1.652,1.6519,1.6519,1.6519,0,1.5831,1.5859,1.5931,1.6004,1.6066,1.6037,1.6095,1.6149,1.6233,1.6284,1.635,1.6451,1.6533,1.6568,1.6649,1.6704,1.6696,1.6725,1.6721,1.6729,1.6559,1.6529,1.673,1.673,1.673,1.673,1.673,1.673,1.5949,1.606,1.6067,1.6198,1.6227,1.6318,1.6354,1.6401,1.6441,1.6553,1.662,1.6641,1.6686,1.677,1.6845,1.6853,1.6884,1.6918,1.6922,1.6762,1.6741,1.6721,1.6693,1.6925,1.6925,1.7086,1.7087,1.7088]},{"header":{"parameterUnit":"m.s-1","parameterCategory":1,"la1":30.2991,"la2":30.254,"lo1":-89.0895,"lo2":-89.0444,"dy":0.0017,"dx":0.0017,"nx":28,"ny":28,"refTime":"2024-10-15T03:00:00:Z","depth":0,"parameterNumber":3,"parameterNumberName":"V-component_of_WINDS"},"data":[0,0,0,0,0,0,0,0,0,0,0,0,0,0,0,0,0,0,0,0,0,0,0,0,0,0,0,0,0,0,0,0,0,0,0,0,0,0,0,0,0,0,0,0,0,0,0,0,0,0,0,0,0,0,0,0,0,0,1.6782,1.6782,0,1.6771,1.6771,1.677,1.6644,1.6641,1.6638,1.6635,1.6628,1.6631,1.6633,0,0,0,0,0,0,0,0,0,0,0,0,0,1.6697,1.6699,1.6782,1.6782,1.6781,1.6771,1.6771,1.677,1.6645,1.6641,1.6637,1.6633,1.6627,1.663,1.6634,0,0,0,0,0,0,0,0,0,0,0,0,0,1.6715,1.67,1.6782,1.6717,1.6711,1.6771,1.6771,1.677,1.6646,1.6641,1.6636,1.6632,1.6626,1.663,1.6634,1.6756,0,0,1.6647,1.6649,0,0,0,0,0,0,0,0,1.6714,1.6718,1.6727,1.6722,1.6715,1.6704,1.6738,1.6766,1.6647,1.6671,1.6635,1.6629,1.6657,1.6659,1.6667,1.6755,1.6755,1.6647,1.665,1.6652,1.6653,0,0,0,0,0,0,0,1.6713,1.6718,1.6777,1.6727,1.672,1.669,1.6687,1.6742,1.6691,1.6668,1.6659,1.6659,1.6653,1.6663,1.6666,1.6755,1.6647,1.6651,1.6653,1.6655,1.6939,1.6944,0,0,0,0,0,0,1.672,1.6718,1.6778,1.6777,1.6703,1.6695,1.6692,1.6713,1.669,1.6682,1.6663,1.6653,1.6659,1.6661,1.6665,1.6804,1.6652,1.6655,1.6658,1.6934,1.6941,1.6946,0,0,0,0,0,0,1.6719,1.6727,1.6778,1.6745,1.6749,1.6702,1.6726,1.6715,1.6725,1.6686,1.6677,1.6683,1.6655,1.6659,1.6733,1.6802,1.6657,1.6661,1.6929,1.6936,1.6943,1.7085,0,0,0,0,0,0,1.6717,1.6727,1.6772,1.6747,1.6751,1.6846,1.673,1.6718,1.6732,1.6719,1.6702,1.6695,1.6652,1.6728,1.6737,1.6806,1.6664,1.6922,1.6932,1.6941,1.7074,1.7096,1.7116,0,0,0,0,0,1.6714,1.6814,1.6775,1.6783,1.6807,1.685,1.6853,1.68,1.6738,1.6783,1.6758,1.6696,1.6793,1.6736,1.6746,1.6817,1.6917,1.6929,1.694,1.7064,1.7092,1.7115,0,0,0,0,0,0,1.6851,1.6809,1.6766,1.686,1.6859,1.6829,1.6884,1.6831,1.6849,1.6836,1.677,1.6768,1.6851,1.6841,1.6779,1.6932,1.6844,1.6858,1.6935,1.6961,1.6982,1.6983,1.6668,0,0,0,0,0,1.6892,1.6929,1.6892,1.6979,1.698,1.6933,1.695,1.6908,1.6906,1.6905,1.6886,1.6886,1.6916,1.6938,1.6965,1.7072,1.7066,1.7125,1.7146,1.7163,1.7176,1.723,1.7256,1.6983,1.6983,1.6983,0,0,1.6977,1.6959,1.6987,1.7005,1.7,1.7041,1.6933,1.6982,1.7012,1.6913,1.698,1.6966,1.6963,1.7053,1.7092,1.7047,1.725,1.7178,1.7192,1.7195,1.7245,1.727,1.7293,1.6991,1.699,1.6988,0,0,1.7153,1.7144,1.7214,1.721,1.7202,1.7169,1.7187,1.7164,1.715,1.7216,1.7142,1.7177,1.7231,1.7231,1.7238,1.7412,1.7355,1.7423,1.7532,1.7586,1.7607,1.7626,1.7687,1.771,1.7435,1.7436,1.7436,0,1.7261,1.7319,1.7257,1.731,1.732,1.723,1.73,1.73,1.7302,1.7311,1.7261,1.7325,1.7317,1.7405,1.7447,1.7456,1.7474,1.7424,1.7609,1.7627,1.7643,1.7701,1.7724,1.7444,1.7443,1.7442,1.7441,0,1.745,1.7492,1.7549,1.7551,1.7567,1.7629,1.7578,1.7602,1.7559,1.7532,1.76,1.7586,1.7607,1.7624,1.7584,1.7707,1.7679,1.762,1.7531,1.7679,1.7731,1.7753,1.7456,1.7453,1.745,1.7448,0,0,1.7714,1.7679,1.7701,1.77,1.7683,1.7714,1.7772,1.779,1.7812,1.7816,1.7862,1.7909,1.7853,1.7861,1.782,1.7867,1.8004,1.7801,1.78,1.7839,1.8137,1.8182,1.8208,1.7966,1.797,1.7973,1.8137,0,1.7883,1.7976,1.7922,1.8025,1.8061,1.7975,1.8025,1.8021,1.7997,1.8025,1.7999,1.8033,1.7957,1.7961,1.8004,1.7978,1.8063,1.7966,1.8009,1.8011,1.8012,1.8236,1.8284,1.8439,1.8158,1.8161,1.8164,0,1.8092,1.8102,1.8208,1.8182,1.8196,1.8241,1.8253,1.8281,1.8274,1.8253,1.8261,1.8208,1.8262,1.8174,1.8248,1.8183,1.8197,1.8187,1.8192,1.8194,1.8096,1.8244,1.8488,1.8511,1.8196,1.8193,1.8191,0,1.8272,1.8313,1.838,1.8382,1.8355,1.8388,1.8379,1.8367,1.8381,1.8392,1.84,1.8418,1.8428,1.8443,1.8395,1.8335,1.8476,1.8384,1.846,1.8461,1.8494,1.8492,1.8743,1.8504,1.8504,1.8503,1.8503,0,1.8466,1.8534,1.846,1.8502,1.8575,1.8512,1.8587,1.8568,1.8558,1.8595,1.8523,1.8559,1.8494,1.8525,1.8488,1.8555,1.856,1.8545,1.8534,1.8551,1.8553,1.8559,1.8547,1.8509,1.8508,1.8507,1.8506,0,1.868,1.8633,1.8701,1.8668,1.8662,1.8717,1.8689,1.8727,1.8697,1.8745,1.8752,1.8706,1.8738,1.8692,1.8719,1.8694,1.8785,1.8759,1.8787,1.8779,1.8858,1.8851,1.9122,1.9154,1.8895,1.8897,1.89,0,1.8806,1.8855,1.8827,1.8846,1.8839,1.8871,1.8884,1.8824,1.884,1.8835,1.8874,1.8898,1.8915,1.897,1.8939,1.8959,1.8932,1.9026,1.8935,1.895,1.8933,1.893,1.8935,1.9045,1.9048,1.905,1.9052,0,1.9035,1.9009,1.9029,1.9042,1.9059,1.9066,1.9069,1.9088,1.9025,1.9048,1.9078,1.9091,1.9117,1.9143,1.9155,1.9145,1.9089,1.9081,1.9099,1.9117,1.9131,1.9124,1.8838,1.9075,1.9073,1.9071,1.907,1.9069,1.9208,1.9247,1.9232,1.9258,1.9252,1.9256,1.9289,1.9262,1.9285,1.9301,1.9264,1.9303,1.9294,1.9304,1.9301,1.9331,1.929,1.9317,1.9324,1.9332,1.9344,1.9127,1.9333,1.9332,1.9332,1.9331,1.933,0,1.9432,1.9417,1.9441,1.9445,1.9465,1.9408,1.9407,1.9428,1.9462,1.9458,1.9475,1.9509,1.9533,1.9504,1.9523,1.9553,1.9527,1.956,1.9557,1.9555,1.9379,1.9361,1.958,1.958,1.958,1.958,1.958,1.9579,1.9551,1.9613,1.9586,1.9645,1.9631,1.9667,1.9671,1.9674,1.9669,1.971,1.9729,1.9709,1.9695,1.9712,1.9731,1.9722,1.9732,1.9774,1.9756,1.9592,1.9568,1.9545,1.9527,1.9777,1.9777,1.9929,1.9931,1.9932]}]]